Weather reports worldwide

Advertisment
Greifswald, Germany (10184): temperature & dewpoint: 12.10.2018 03:00:00 - 18.10.2018 03:00:00 (CEST)Greifswald, Germany (10184): temperature 5cm & temperature -5cm: 12.10.2018 03:00:00 - 18.10.2018 03:00:00 (CEST)Greifswald, Germany (10184): temperature -20cm & temperature -100cm: 12.10.2018 03:00:00 - 18.10.2018 03:00:00 (CEST)Greifswald, Germany (10184): wind speed & gusts: 12.10.2018 03:00:00 - 18.10.2018 03:00:00 (CEST)Greifswald, Germany (10184): wind direction: 12.10.2018 03:00:00 - 18.10.2018 03:00:00 (CEST)Greifswald, Germany (10184): reduced air pressure: 12.10.2018 03:00:00 - 18.10.2018 03:00:00 (CEST)Greifswald, Germany (10184): visibility: 12.10.2018 03:00:00 - 18.10.2018 03:00:00 (CEST)Greifswald, Germany (10184): sunshine duration: 12.10.2018 03:00:00 - 18.10.2018 03:00:00 (CEST)Greifswald, Germany (10184): precipitation: 12.10.2018 03:00:00 - 18.10.2018 03:00:00 (CEST)
Date & Time tt [°C] td [°C] tt 5cm [°C] tt -5cm [°C] tt -20cm [°C] tt -100cm [°C] ff [km/h] ff [kn] fx [km/h] fx [kn] dd ppp [hPa] vv [km] sd [min] rr [mm]
18.10.2018 03:00:00 6,3 5,7 3,9 9,1 12,3 13,9 2 1 6 4 SW 1019,5 8 0 0,0
18.10.2018 02:00:00 6,7 6,2 4,0 9,5 12,6 13,9 0 0 6 4 N 1019,6 8 0 0,0
18.10.2018 01:00:00 7,2 7,1 4,1 10,0 12,9 13,9 0 0 4 2 N 1019,8 4,0 0 0,0
18.10.2018 00:00:00 7,9 7,2 5,1 10,5 13,2 13,9 3 1 5 3 SE 1019,9 6 0 0,0
17.10.2018 23:00:00 8,4 7,7 5,5 11,0 13,5 13,9 3 1 10 5 N 1019,9 6 0 0,0
17.10.2018 22:00:00 9,3 8,9 6,4 11,6 13,9 13,9 9 5 11 6 ESE 1020,0 3,3 0 0,0
17.10.2018 21:00:00 9,6 8,8 6,5 12,3 14,2 13,9 2 1 6 3 WNW 1020,0 10 0 0,0
17.10.2018 20:00:00 10,7 10,1 7,8 13,1 14,5 13,9 5 3 10 6 WNW 1019,7 9 0 0,0
17.10.2018 19:00:00 11,4 10,7 8,0 14,2 14,7 14,0 0 0 5 3 N 1019,4 8 0 0,0
17.10.2018 18:00:00 13,3 11,2 10,4 15,7 14,7 14,0 4 2 10 5 ENE 1019,3 25 30 0,0
17.10.2018 17:00:00 15,6 10,4 15,1 17,2 14,5 14,0 8 4 14 7 E 1019,1 40 60 0,0
17.10.2018 16:00:00 16,8 10,3 19,1 18,0 14,1 14,0 7 4 12 6 NE 1019,4 38 60 0,0
17.10.2018 15:00:00 17,0 10,7 21,2 18,2 13,5 14,0 9 5 14 8 ENE 1019,3 33 60 0,0
17.10.2018 14:00:00 19,5 9,0 22,9 17,6 12,8 14,0 8 5 14 7 ESE 1019,3 70 60 0,0
17.10.2018 13:00:00 18,9 8,7 21,2 16,0 12,2 14,0 6 4 11 6 SE 1019,8 65 60 0,0
17.10.2018 12:00:00 18,1 9,1 19,7 14,0 11,7 14,0 3 2 11 6 SE 1020,1 65 60 0,0
17.10.2018 11:00:00 16,0 8,8 16,9 11,8 11,4 14,0 5 3 14 7 SSE 1020,1 45 60 0,0
17.10.2018 10:00:00 12,1 8,7 11,6 9,8 11,4 14,0 0 0 6 3 N 1020,1 25 60 0,0
17.10.2018 09:00:00 7,2 6,6 6,6 8,7 11,5 13,9 3 2 4 2 SE 1020,1 10 30 0,0
17.10.2018 08:00:00 6,3 5,9 3,9 8,6 11,8 13,9 0 0 6 4 N 1019,8 8 0 0,0
17.10.2018 07:00:00 6,5 5,8 4,2 9,0 12,0 13,9 4 2 5 3 SE 1019,6 13 0 0,0
17.10.2018 06:00:00 7,0 6,4 4,7 9,3 12,2 14,0 3 2 7 4 WSW 1019,4 17 0 0,0
17.10.2018 05:00:00 7,4 6,9 5,1 9,6 12,5 14,0 2 1 5 3 SSE 1019,3 12 0 0,0
17.10.2018 04:00:00 7,4 7,0 5,0 9,9 12,7 14,0 0 0 4 2 N 1019,4 9 0 0,0
17.10.2018 03:00:00 8,0 7,2 5,2 10,3 13,0 14,0 3 1 5 3 SE 1019,4 14 0 0,0
17.10.2018 02:00:00 8,3 7,5 6,3 10,7 13,3 14,0 4 2 6 3 SE 1019,4 15 0 0,0
17.10.2018 01:00:00 8,8 8,2 5,9 11,1 13,5 14,0 0 0 4 2 N 1019,3 12 0 0,0
17.10.2018 00:00:00 9,2 8,6 6,6 11,6 13,8 14,0 0 0 4 2 N 1019,7 15 0 0,0
16.10.2018 23:00:00 9,8 8,6 6,9 12,1 14,1 14,0 0 0 2 1 N 1019,8 16 0 0,0
16.10.2018 22:00:00 10,2 9,4 7,6 12,6 14,4 14,0 0 0 4 2 N 1019,9 16 0 0,0
16.10.2018 21:00:00 10,7 9,6 7,8 13,3 14,7 14,0 0 0 5 3 N 1019,9 20 0 0,0
16.10.2018 20:00:00 11,6 10,2 8,1 14,1 15,0 14,0 3 1 9 5 E 1019,6 28 0 0,0
16.10.2018 19:00:00 12,7 11,0 9,2 15,2 15,2 14,0 4 2 5 3 ESE 1019,1 35 0 0,0
16.10.2018 18:00:00 15,2 11,2 11,9 16,7 15,2 14,0 3 2 9 5 ENE 1018,8 43 30 0,0
16.10.2018 17:00:00 17,9 10,2 17,6 18,3 14,9 14,0 5 3 9 5 NE 1018,6 60 60 0,0
16.10.2018 16:00:00 22,1 8,2 22,4 19,0 14,4 14,0 4 2 10 6 WSW 1018,4 60 60 0,0
16.10.2018 15:00:00 21,8 7,2 23,2 18,8 13,7 14,0 7 4 12 6 S 1018,5 60 60 0,0
16.10.2018 14:00:00 21,1 6,4 23,1 17,8 13,0 14,0 6 4 14 8 S 1018,5 60 60 0,0
16.10.2018 13:00:00 20,1 7,1 21,5 16,7 12,3 14,0 5 3 10 5 SW 1018,8 61 60 0,0
16.10.2018 12:00:00 19,1 7,4 20,0 14,5 11,7 14,0 4 2 13 7 S 1018,7 58 60 0,0
16.10.2018 11:00:00 16,2 6,4 17,5 12,1 11,4 14,0 4 2 8 4 S 1018,4 55 60 0,0
16.10.2018 10:00:00 13,8 6,1 14,5 9,9 11,4 13,9 5 3 11 6 SSW 1018,3 55 60 0,0
16.10.2018 09:00:00 9,2 5,7 8,6 8,5 11,6 13,9 4 2 10 6 SSE 1018,1 56 31 0,0
16.10.2018 08:00:00 7,0 5,3 4,5 8,4 11,8 13,9 4 2 7 4 SSE 1017,6 45 0 0,0
16.10.2018 07:00:00 7,0 5,6 4,2 8,7 12,0 13,9 2 1 7 4 ESE 1017,2 40 0 0,0
16.10.2018 06:00:00 7,4 5,9 4,6 9,0 12,3 13,9 5 3 7 4 ESE 1017,1 50 0 0,0
16.10.2018 05:00:00 8,5 6,5 5,2 9,4 12,6 13,9 4 2 10 5 ESE 1016,9 50 0 0,0
16.10.2018 04:00:00 8,7 5,9 5,7 9,7 12,8 13,9 5 3 7 4 WSW 1016,7 57 0 0,0
16.10.2018 03:00:00 9,0 6,2 5,6 10,1 13,1 13,9 4 2 7 4 SSW 1016,8 52 0 0,0
16.10.2018 02:00:00 10,6 6,0 6,7 10,5 13,4 13,9 4 2 10 6 WSW 1016,8 60 0 0,0
16.10.2018 01:00:00 11,0 6,4 6,5 10,9 13,7 13,9 4 2 9 5 SSW 1016,7 65 0 0,0
16.10.2018 00:00:00 12,0 6,5 6,9 11,5 14,1 13,9 4 2 10 5 S 1016,3 70 0 0,0
15.10.2018 23:00:00 13,4 6,7 7,9 12,0 14,4 13,9 4 2 11 6 S 1016,3 70 0 0,0
15.10.2018 22:00:00 13,9 6,9 8,8 12,7 14,7 13,9 5 3 16 9 S 1016,4 70 0 0,0
15.10.2018 21:00:00 15,5 7,0 11,6 13,5 15,1 13,9 7 4 15 8 S 1016,3 70 0 0,0
15.10.2018 20:00:00 16,2 7,1 11,5 14,2 15,4 13,9 7 4 16 9 S 1016,2 70 0 0,0
15.10.2018 19:00:00 15,4 7,9 10,6 15,3 15,6 13,9 8 4 14 8 SSE 1015,9 70 0 0,0
15.10.2018 18:00:00 18,2 7,4 16,0 16,8 15,7 13,9 6 3 21 12 SE 1015,2 70 38 0,0
15.10.2018 17:00:00 19,4 7,2 18,0 18,5 15,5 13,9 8 4 27 15 S 1015,1 70 55 0,0
15.10.2018 16:00:00 19,9 7,7 19,6 19,5 15,0 13,9 8 4 26 14 SSE 1014,9 70 44 0,0
15.10.2018 15:00:00 22,2 7,2 23,5 19,9 14,3 13,9 10 5 21 11 S 1015,0 70 60 0,0
15.10.2018 14:00:00 21,2 7,1 22,9 18,8 13,6 13,9 9 5 22 12 SSE 1014,9 70 59 0,0
15.10.2018 13:00:00 20,0 7,3 22,1 17,4 12,9 13,9 10 5 24 13 S 1015,0 65 60 0,0
15.10.2018 12:00:00 18,0 6,6 19,1 15,2 12,4 13,9 10 5 26 14 S 1015,4 55 60 0,0
15.10.2018 11:00:00 16,4 6,3 17,5 12,9 12,1 13,9 10 5 22 12 SSE 1015,3 65 60 0,0
15.10.2018 10:00:00 14,9 5,7 15,5 11,0 12,1 13,9 11 6 20 11 SSW 1015,3 70 60 0,0
15.10.2018 09:00:00 13,0 5,8 12,4 9,8 12,2 13,9 9 5 27 14 S 1015,1 70 38 0,0
15.10.2018 08:00:00 11,9 5,7 9,5 9,8 12,4 13,9 13 7 27 15 S 1014,8 70 0 0,0
15.10.2018 07:00:00 12,1 5,7 9,8 9,9 12,6 13,8 13 7 31 17 S 1014,5 70 0 0,0
15.10.2018 06:00:00 12,4 5,9 10,0 10,1 12,8 13,8 15 8 27 15 SSE 1014,5 70 0 0,0
15.10.2018 05:00:00 12,9 6,2 10,8 10,3 13,1 13,8 10 6 20 11 SSE 1014,6 70 0 0,0
15.10.2018 04:00:00 13,0 6,7 10,0 10,6 13,3 13,8 9 5 18 10 SSE 1014,6 70 0 0,0
15.10.2018 03:00:00 13,3 7,4 10,3 11,0 13,6 13,8 9 5 17 9 SE 1014,5 55 0 0,0
15.10.2018 02:00:00 13,7 7,7 9,5 11,3 13,9 13,8 8 4 17 9 SSE 1014,6 57 0 0,0
15.10.2018 01:00:00 14,6 7,9 10,7 11,7 14,2 13,8 11 6 21 11 SSE 1014,3 53 0 0,0
15.10.2018 00:00:00 13,6 8,4 8,6 12,0 14,5 13,8 6 3 13 7 SE 1014,3 50 0 0,0
14.10.2018 23:00:00 12,7 8,7 8,1 12,6 14,9 13,8 6 3 13 7 SE 1014,4 51 0 0,0
14.10.2018 22:00:00 13,2 8,1 8,4 13,3 15,2 13,8 5 3 12 6 SE 1014,3 55 0 0,0
14.10.2018 21:00:00 16,1 7,7 12,4 14,1 15,6 13,8 8 5 16 9 SE 1014,4 58 0 0,0
14.10.2018 20:00:00 17,7 7,9 13,3 15,1 15,8 13,8 7 4 18 10 SE 1014,6 60 0 0,0
14.10.2018 19:00:00 18,9 8,0 15,4 16,2 16,1 13,8 9 5 21 11 SSE 1014,5 55 0 0,0
14.10.2018 18:00:00 20,0 8,2 15,9 17,7 16,1 13,8 8 4 21 11 SSE 1014,5 60 41 0,0
14.10.2018 17:00:00 21,5 8,6 19,9 19,6 15,8 13,8 8 4 29 15 SSE 1014,4 65 60 0,0
14.10.2018 16:00:00 22,0 8,4 22,1 20,4 15,3 13,8 14 8 37 20 S 1014,4 43 60 0,0
14.10.2018 15:00:00 21,6 8,2 22,7 20,1 14,6 13,8 20 11 38 21 SSE 1014,6 30 60 0,0
14.10.2018 14:00:00 20,7 8,6 22,1 19,0 13,9 13,8 15 8 35 19 SSE 1015,1 35 60 0,0
14.10.2018 13:00:00 19,4 8,9 20,9 17,3 13,3 13,8 16 9 36 19 SSE 1015,8 31 60 0,0
14.10.2018 12:00:00 17,9 8,6 18,8 15,3 12,8 13,7 17 9 36 19 SSE 1016,1 25 60 0,0
14.10.2018 11:00:00 15,9 8,4 16,7 13,2 12,6 13,7 15 8 38 20 SSE 1016,8 30 60 0,0
14.10.2018 10:00:00 14,8 8,5 15,3 11,3 12,6 13,7 10 5 23 13 SE 1017,2 30 60 0,0
14.10.2018 09:00:00 12,3 8,2 11,9 10,0 12,8 13,7 11 6 21 11 SE 1017,6 24 39 0,0
14.10.2018 08:00:00 10,7 8,1 8,1 9,9 13,1 13,7 9 5 15 8 SE 1017,8 22 0 0,0
14.10.2018 07:00:00 11,2 8,4 7,0 10,4 13,3 13,7 7 4 17 9 SSE 1018,2 24 0 0,0
14.10.2018 06:00:00 12,4 8,7 9,9 11,0 13,6 13,7 10 6 22 12 SSE 1018,5 25 0 0,0
14.10.2018 05:00:00 13,0 8,8 10,7 11,3 13,9 13,7 11 6 21 11 SSE 1018,8 30 0 0,0
14.10.2018 04:00:00 13,5 9,2 11,4 11,7 14,2 13,7 11 6 20 11 SE 1019,3 20 0 0,0
14.10.2018 03:00:00 14,1 9,3 12,1 12,1 14,5 13,7 8 4 16 9 SSE 1019,9 20 0 0,0
14.10.2018 02:00:00 13,7 9,5 9,9 12,6 14,8 13,7 8 4 16 9 SE 1020,3 23 0 0,0
14.10.2018 01:00:00 15,7 9,6 13,2 13,2 15,1 13,7 8 4 22 12 SE 1020,8 24 0 0,0
14.10.2018 00:00:00 16,0 9,7 13,5 13,6 15,4 13,7 12 7 24 13 SSE 1020,9 25 0 0,0
13.10.2018 23:00:00 16,7 9,8 14,4 14,1 15,7 13,7 11 6 22 12 SSE 1021,2 25 0 0,0
13.10.2018 22:00:00 16,6 10,2 13,8 14,7 16,1 13,7 10 5 17 9 SE 1021,5 25 0 0,0
13.10.2018 21:00:00 18,6 10,6 15,8 15,7 16,4 13,7 8 4 18 10 SE 1021,7 34 0 0,0
13.10.2018 20:00:00 18,3 11,3 15,3 16,6 16,7 13,7 8 4 18 10 SE 1021,8 30 0 0,0
13.10.2018 19:00:00 20,1 11,3 17,6 17,9 16,9 13,7 8 5 18 10 SE 1021,7 36 0 0,0
13.10.2018 18:00:00 22,0 11,9 18,9 19,5 16,9 13,7 10 5 23 13 SE 1021,8 30 45 0,0
13.10.2018 17:00:00 23,8 12,7 22,9 21,6 16,5 13,7 11 6 21 11 SE 1022,1 50 60 0,0
13.10.2018 16:00:00 25,4 12,0 25,5 22,4 15,9 13,7 7 4 26 14 SSE 1022,4 70 60 0,0
13.10.2018 15:00:00 25,1 12,5 26,2 22,1 15,2 13,6 11 6 24 13 SSE 1022,9 70 60 0,0
13.10.2018 14:00:00 24,0 13,1 25,5 20,9 14,3 13,6 11 6 22 12 S 1023,3 45 60 0,0
13.10.2018 13:00:00 22,4 12,7 24,0 19,1 13,6 13,6 12 7 24 13 S 1023,9 25 60 0,0
13.10.2018 12:00:00 20,8 12,1 22,0 17,0 13,0 13,6 9 5 20 11 SSW 1024,3 28 60 0,0
13.10.2018 11:00:00 19,6 11,2 20,9 14,6 12,6 13,6 7 4 20 11 S 1024,1 20 60 0,0
13.10.2018 10:00:00 17,2 10,8 18,0 12,4 12,4 13,6 12 7 20 11 SSE 1024,2 25 60 0,0
13.10.2018 09:00:00 14,7 10,2 14,7 10,8 12,5 13,6 6 3 16 8 S 1024,6 20 41 0,0
13.10.2018 08:00:00 12,8 10,0 9,9 10,6 12,7 13,6 5 3 14 7 S 1024,2 20 0 0,0
13.10.2018 07:00:00 13,3 10,0 10,0 10,8 12,9 13,6 6 4 13 7 S 1024,1 25 0 0,0
13.10.2018 06:00:00 13,8 10,0 11,1 11,0 13,1 13,6 6 3 15 8 S 1024,0 24 0 0,0
13.10.2018 05:00:00 13,3 10,2 9,3 11,2 13,3 13,6 5 3 13 7 S 1023,9 25 0 0,0
13.10.2018 04:00:00 14,0 10,2 9,7 11,5 13,5 13,6 5 3 14 7 S 1023,9 25 0 0,0
13.10.2018 03:00:00 14,4 10,4 10,4 11,8 13,7 13,6 6 4 16 9 S 1023,7 29 0 0,0
13.10.2018 02:00:00 14,5 10,3 10,5 12,1 14,0 13,6 6 3 17 9 S 1023,9 27 0 0,0
13.10.2018 01:00:00 14,6 10,5 11,1 12,4 14,3 13,6 8 5 17 9 SSE 1023,8 23 0 0,0
13.10.2018 00:00:00 14,9 10,8 9,8 12,8 14,6 13,6 5 3 13 7 S 1023,9 24 0 0,0
12.10.2018 23:00:00 15,6 10,8 11,8 13,3 14,9 13,6 8 4 16 9 S 1023,8 29 0 0,0
12.10.2018 22:00:00 14,9 11,3 10,3 13,9 15,2 13,6 5 3 9 5 SSE 1023,9 22 0 0,0
12.10.2018 21:00:00 15,4 11,6 11,2 14,6 15,6 13,6 5 3 11 6 SSE 1023,8 22 0 0,0
12.10.2018 20:00:00 17,4 11,6 13,3 15,5 15,9 13,6 6 4 18 10 SSE 1023,7 29 0 0,0
12.10.2018 19:00:00 16,4 12,5 11,9 16,8 16,1 13,6 6 3 10 5 SSE 1023,2 23 0 0,0
12.10.2018 18:00:00 20,9 12,0 16,0 18,6 16,0 13,6 4 2 14 7 SSE 1022,6 35 47 0,0
12.10.2018 17:00:00 23,7 10,5 22,8 20,6 15,7 13,6 10 5 20 11 SSW 1022,2 40 60 0,0
12.10.2018 16:00:00 23,7 10,5 23,9 21,3 15,0 13,6 10 5 21 11 S 1022,1 40 60 0,0
12.10.2018 15:00:00 23,2 10,5 24,1 20,9 14,3 13,6 9 5 21 11 S 1021,9 40 60 0,0
12.10.2018 14:00:00 21,8 11,0 23,7 19,6 13,5 13,6 11 6 22 12 S 1021,7 27 60 0,0
12.10.2018 13:00:00 20,3 11,1 22,0 17,8 12,8 13,6 11 6 20 11 S 1022,0 25 60 0,0
12.10.2018 12:00:00 18,7 10,7 19,9 15,6 12,2 13,6 11 6 24 13 S 1022,3 28 60 0,0
12.10.2018 11:00:00 16,9 10,2 18,2 13,4 11,9 13,6 13 7 28 15 S 1022,0 28 60 0,0
12.10.2018 10:00:00 15,4 9,7 15,9 11,5 11,8 13,5 13 7 25 14 SSE 1021,2 28 60 0,0
12.10.2018 09:00:00 13,2 9,1 12,9 10,1 11,9 13,5 11 6 22 12 S 1020,8 25 42 0,0
12.10.2018 08:00:00 12,3 9,0 10,4 9,9 12,1 13,5 11 6 23 13 SSE 1020,3 23 0 0,0
12.10.2018 07:00:00 12,6 9,2 10,3 10,2 12,3 13,5 11 6 22 12 SSE 1019,8 20 0 0,0
12.10.2018 06:00:00 13,0 9,6 10,8 10,5 12,4 13,5 12 7 24 13 S 1019,8 19 0 0,0
12.10.2018 05:00:00 13,4 9,9 11,3 10,8 12,6 13,5 13 7 25 13 S 1019,5 20 0 0,0
12.10.2018 04:00:00 14,1 10,0 12,3 11,0 12,7 13,5 10 6 24 13 SSE 1019,1 21 0 0,0
12.10.2018 03:00:00 14,4 10,4 12,6 11,1 12,9 13,5 14 7 24 13 SE 1019,1 21 0 0,0

tt = temperature
td = dewpoint
tt 5cm = temperature 5cm
tt -5cm = temperature -5cm
tt -20cm = temperature -20cm
tt -100cm = temperature -100cm
ff = wind speed
fx = gusts
dd = wind direction
ppp = reduced air pressure
vv = visibility
sd = sunshine duration
rr = precipitation

Next stations